Regional Weather Roundup
Issued by NWS

Home | Current Version | Previous Version | Text Only | Print | Product List | Glossary On
Versions: 1 2 3 4 5 6 7 8 9 10 11 12 13 14 15 16 17 18 19 20 21 22 23 24 25 26 27 28 29 30 31 32 33 34 35 36 37 38 39 40 41 42 43 44 45 46 47 48 49 50
000
ASUS44 KFWD 100515
RWRTX
NORTH TEXAS HOURLY WEATHER ROUNDUP
NATIONAL WEATHER SERVICE FORT WORTH TX
1200 AM CDT THU JUL 10 2014

NOTE: "FAIR" INDICATES FEW OR NO CLOUDS BELOW 12,000 FEET WITH NO
SIGNIFICANT WEATHER AND/OR OBSTRUCTIONS TO VISIBILITY.

TXZ118-119-100600-
DALLAS/FORT WORTH METROPLEX

CITY           SKY/WX    TMP DP  RH WIND       PRES   REMARKS
DFW AIRPORT    PTCLDY    86  62  44 S10       29.98R
DALLAS LOVE    NOT AVBL
FTW MEACHAM    CLEAR     86  61  42 S10       29.98R
DAL-EXECUTIVE  CLEAR     85  63  47 VRB7      29.99R
FTW-ALLIANCE   PTCLDY    82  62  50 S7        29.98R
FTW-NAS-JRB    CLEAR     87  58  37 S14       30.02R
FTW-SPINKS     CLEAR     82  62  50 S8        30.00S
ARLINGTON      CLEAR     84  60  44 S8        29.99R
GRAND PRAIRIE  CLEAR     85  60  43 SE5       30.00S
ADDISON        PTCLDY    87  61  40 S9        30.00R
MESQUITE       PTCLDY    78  67  69 S6        30.00R
LANCASTER      CLEAR     79  64  59 S5        30.00R
$$

TXZ091>094-102>105-117-120-121-131>134-100600-
NORTH CENTRAL TEXAS

CITY           SKY/WX    TMP DP  RH WIND       PRES   REMARKS
SHRMAN/DENISON CLEAR     80  72  77 E7        30.00S
GAINESVILLE    CLEAR     79  71  76 E5        30.01S
BOWIE          CLEAR     79  67  66 CALM      30.00S
BRIDGEPORT     CLEAR     83  57  41 S8        30.00R
DECATUR        CLEAR     84  61  45 S9        30.00R
MCKINNEY       PTCLDY    83  68  60 S9        29.99R
GREENVILLE     MOCLDY    81  66  61 S7        29.99S
ROCKWALL       PTCLDY    81  69  65 S6        29.98R
TERRELL        PTCLDY    83  70  64 CALM      30.00R
WAXAHACHIE     CLEAR     78  62  58 S5        30.01S
CLEBURNE       CLEAR     79  64  61 S7        30.02S
GRANBURY       CLEAR     84  60  44 SE6       30.00S
$$

TXZ083>090-098>101-113>116-127>130-139>142-154-155-100600-
WESTERN NORTH TEXAS

CITY           SKY/WX    TMP DP  RH WIND       PRES   REMARKS
WICHITA FALLS  PTCLDY    81  69  67 E9        29.97S
WF-KICKAPOO    CLEAR     82  67  60 E6        29.98S
VERNON         MOCLDY    84  65  51 SE7       29.98S
ABILENE        CLEAR     83  59  44 S12       30.02S
ABILENE-DYESS  CLEAR     81  60  49 S12       30.01S
BRECKENRIDGE   CLEAR     85  59  40 S9        29.99S
GRAHAM         CLEAR     81  63  54 SE3       29.97S
MINERAL WELLS  CLEAR     80  65  59 SE9       29.98R
STEPHENVILLE   CLEAR     80  58  47 S5        30.05R
COMANCHE       CLEAR     80  56  44 S7        30.03S
BROWNWOOD      MOCLDY    81  57  44 S5        30.03R
COLEMAN        CLEAR     83  58  43 S7        30.04R
BRADY          CLEAR     81  63  54 S6        30.06R
$$

TXZ143>147-156>162-174-175-100600-
CENTRAL TEXAS

CITY           SKY/WX    TMP DP  RH WIND       PRES   REMARKS
WACO           CLEAR     82  66  58 S14       30.01R
WACO-MCGREGOR  CLEAR     81  63  54 S12       30.03R
HILLSBORO      CLEAR     81  61  50 S8        30.01R
CORSICANA      CLEAR     80  66  62 S8        30.02R
MEXIA          CLEAR     76  67  74 S3        30.01R
HEARNE         CLEAR     80  73  77 SE5       30.03R
CAMERON        CLEAR     79  69  70 S8        30.03R
TEMPLE         CLEAR     81  63  54 S12       30.03R
KILLEEN        CLEAR     79  57  47 SE6       30.04R
KILLEEN-SKYLRK CLEAR     81  63  54 S8        30.04R
FORT HOOD      CLEAR     83  65  54 SE8       30.03R
GATESVILLE     CLEAR     79  63  57 S6        30.05R
HAMILTON       CLEAR     77  59  54 S6        30.04S
LAMPASAS       CLEAR     80  65  59 S7        30.03S
$$

TXZ095>097-106>112-122>126-135>138-148>153-164>167-100600-
EAST TEXAS

CITY           SKY/WX    TMP DP  RH WIND       PRES   REMARKS
PARIS          PTCLDY    75  68  78 E7        30.02R
SULPHUR SPRNGS MOCLDY    77  72  85 E3        30.02R
CLARKSVILLE    PTCLDY    78  73  87 E3        30.01S
MOUNT PLEASANT MOCLDY    76  73  88 CALM      30.02S
GILMER         PTCLDY    82  72  69 CALM      30.02S
MINEOLA        PTCLDY    82  72  69 S6        30.00S
TYLER          CLEAR     79  69  71 S7        30.01R
LONGVIEW       CLEAR     78  71  79 S6        30.00S
MARSHALL       CLEAR     78  74  87 CALM      30.02F
ATHENS         CLEAR     73  68  83 CALM      30.01R
PALESTINE      CLEAR     77  67  70 SE3       30.04R
JACKSONVILLE   CLEAR     81  69  66 S6        30.05S
HENDERSON      CLEAR     75  72  89 CALM      30.03S
NACOGDOCHES    CLEAR     75  70  83 CALM      30.03S
LUFKIN         CLEAR     81  72  74 S6        30.03R
$$

SUPPLEMENTAL OBSERVATIONS (CENTRAL)

CITY           SKY/WX    TMP DP  RH WIND       PRES   REMARKS
LAKE TEXOMA      N/A     79  75  89 E5          N/A
CADDO GRASSLND   N/A     77  70  78 SE3         N/A
PAT MAYSE LAKE   N/A     79  73  83 E5          N/A
GREENVILLE       N/A     79  70  73 E5          N/A
PALESTINE        N/A     81  68  65 S5          N/A
LAKE LIMESTONE   N/A     79  66  65 S7          N/A
MCGREGOR         N/A     81  64  57 S8          N/A
TEMPLE           N/A     77  66  69 S7          N/A
$$

SUPPLEMENTAL OBSERVATIONS (WEST)

CITY           SKY/WX    TMP DP  RH WIND       PRES   REMARKS
MILLERS CREEK    N/A     82  63  51 SE8         N/A
POSSUM KINGDOM   N/A     82  61  47 S5          N/A
LBJ GRASSLAND    N/A     82  63  51 SE8         N/A
GRANBURY         N/A     82  59  44 S7          N/A
COMANCHE         N/A     81  57  44 S7          N/A
HAMBY            N/A     82  57  42 S9          N/A
IVIE RESERVOIR   N/A     82  61  47 S9          N/A
COLORADO BEND    N/A    N/A N/A N/A S6          N/A
$$

SUPPLEMENTAL OBSERVATIONS (EAST)

CITY           SKY/WX    TMP DP  RH WIND       PRES   REMARKS
CLARKSVILLE      N/A     75  72  88 E3          N/A
CADDO LAKE       N/A     75  73  94 CALM        N/A
GILMER           N/A     81  70  69 SW2         N/A
HENDERSON        N/A     75  70  83 CALM        N/A
LUFKIN           N/A     79  75  89 MISG        N/A
N SABINE NF      N/A     73  68  83 MISG        N/A
S SABINE NF      N/A     75  70  83 SW2         N/A
$$

SUPPLEMENTAL OBSERVATIONS ARE A COLLECTION OF AUTOMATED INSTRUMENTS
THAT ARE MAINTAINED BY A VARIETY OF FEDERAL AND STATE AGENCIES.
CERTAIN ELEMENTS...SUCH AS HUMIDITY VALUES AND SUSTAINED WIND
SPEEDS...MAY BE APPROXIMATED.



USA.gov is the U.S. government's official web portal to all federal, state and local government web resources and services.